Location: ??????
(56.0120°N, 39.1740°E)
Time: 10:42:28
(UTC+00:00)

NOSS 3-1 (A) - Pass Details

Date: 14 April 2026
Orbit: 613 x 1593 km, 63.4° (Epoch: 10 January)

Event Time Altitude Azimuth Distance (km) Brightness Sun altitude
Rises 20:54:49 0° 309° (NW) 3,642 7.2 -24.1°
Reaches altitude 10° 20:57:10 10° 306° (NW) 2,820 6.4 -24.1°
Maximum altitude 21:03:49 60° 228° (SW) 1,366 4.0 -24.2°
Enters shadow 21:06:11 44° 174° (S) 1,692 4.2 -24.2°
